Location: Oak Harbor
(48.2930°N, 122.6420°W)
Time: 01:22:07
(UTC-07:00)

ACS3 Solar Sail - Pass Details

Date: 22 May 2026
Orbit: 877 x 953 km, 97.2° (Epoch: 8 June)

Event Time Altitude Azimuth Distance (km) Brightness Sun altitude
Rises 02:05:43 0° 11° (NNE) 3,488 6.3 -20.0°
Reaches altitude 10° 02:08:07 10° 11° (NNE) 2,543 5.2 -19.9°
Maximum altitude 02:13:47 86° 285° (WNW) 887 1.5 -19.7°
Enters shadow 02:16:14 36° 198° (SSW) 1,361 2.0 -19.6°
